Погода в Сабадели

Испания     41°32′33″N   2°06′12″E
темп.,
°C
ветер,
м/с
пор.,
м/с
влажн.,
%
обл.,
%
осадки,
мм/ч
давл.,
гПа
погр.,
м
9 марта, вт
вт901:00+11сз3574100 6.6 1017445
04:00+10зсз247497 0.0 1016261
07:00+9сз247987 0.0 1017270
10:00+11сз24600 0.0 1017480
13:00+15з34410 0.0 10171243
16:00+16зюз33350 0.0 10161798
19:00+14с124817 0.1 1017792
22:00+11в246566 0.4 1019498
10 марта, ср
ср1001:00+11всв136772 0.4 1020555
04:00+10сз226381 0.0 1020209
07:00+9сз236180 0.0 1021207
10:00+10сз235132 0.0 1022389
13:00+14юз234316 0.0 10221206
16:00+16юз34330 0.0 10211307
19:00+14з35400 0.0 1022938
22:00+12з23509 0.0 1023276
11 марта, чт
чт1101:00+11зсз12556 0.0 1024127
04:00+9сз224925 0.0 102291
07:00+9сз234659 0.0 1023119
10:00+12сз233866 0.0 1023326
13:00+17з242777 0.0 1023811
16:00+19зюз3528100 0.0 10211171
19:00+16юз244093 0.0 1021235
22:00+14зюз124966 0.0 102277
12 марта, пт
пт1201:00+13сз225350 0.0 102155
04:00+12сз225580 0.0 101973
07:00+11сз235690 0.0 101994
10:00+14ссз234998 0.0 1020390
13:00+17юв544996 0.0 1020874
16:00+14юв566084 0.1 1019755
19:00+12ю356991 0.1 1020599
22:00+11ю357517 0.0 1023554
13 марта, сб
сб1301:00+10ююз147228 0.0 1024496
04:00+10юз257360 0.3 1023886
07:00+9зюз267056 0.4 1023764
10:00+11з124610 0.0 1023748
13:00+15зюз34376 0.0 10221440
16:00+16зюз573186 0.0 10191566
19:00+14зюз474793 0.0 10191078
22:00+12зюз35720 0.0 1021441